+ View the NASA Portal
+ Center for Near-Earth Object Studies
IMPORTANT:
The SSD Announcement email list is now available. Major changes are coming in the near future, including possible hostname and/or URL changes. To be notified of such changes, subscribe to this email list.
Please visit
this page
for more details.
Don't show this message again
JPL Small-Body Database Browser
Search:
[
help
]
487103 (2014 OC148)
Classification:
Main-belt Asteroid
SPK-ID:
2487103
[
Ephemeris
|
Orbit Diagram
|
Orbital Elements
|
Mission Design
|
Physical Parameters
|
Discovery Circumstances
]
[ show orbit diagram ]
Orbital Elements at Epoch 2458600.5 (2019-Apr-27.0) TDB
Reference:
JPL 10
(heliocentric ecliptic J2000)
Element
Value
Uncertainty (1-sigma)
Units
e
.1606134924766063
4.9269e-08
a
2.361300759139064
2.5874e-08
au
q
1.982043997426077
1.177e-07
au
i
2.736755481135962
7.7227e-06
deg
node
20.96113228115878
0.00024492
deg
peri
212.9119722126842
0.00024845
deg
M
163.6619986265378
4.3351e-05
deg
t
p
2457997.981013838527
(2017-Sep-01.48101384)
0.00015645
TDB
period
1325.334144996558
3.63
2.1783e-05
5.964e-08
d
yr
n
.2716296123200953
4.4645e-09
deg/d
Q
2.74055752085205
3.0029e-08
au
Orbit Determination Parameters
# obs. used (total)
65
data-arc span
7099 days (19.44 yr)
first obs. used
1999-03-13
last obs. used
2018-08-19
planetary ephem.
DE431
SB-pert. ephem.
SB431-N16
condition code
0
norm. resid. RMS
.64723
source
ORB
producer
Otto Matic
solution date
2019-Jul-14 16:02:57
Additional Information
Earth MOID
= .971603 au
Jupiter MOID
= 2.25817 au
T_jup
= 3.532
[ show covariance matrix ]
[
Ephemeris
|
Orbit Diagram
|
Orbital Elements
|
Mission Design
|
Physical Parameters
|
Discovery Circumstances
]
Physical Parameter Table
Parameter
Symbol
Value
Units
Sigma
Reference
Notes
absolute magnitude
H
18.1
n/a
MPO456348
487103 (2014 OC148)
Discovered 2006-Jan-31 by Spacewatch at Kitt Peak
Reference:
Last Updated:
2017-03-14
Alternate Designations
2014 OC148
= 2013 BP9
[
Ephemeris
|
Orbit Diagram
|
Orbital Elements
|
Mission Design
|
Physical Parameters
|
Discovery Circumstances
]
2019-Dec-15 19:17 UT
(server date/time)
Site Manager:
Ryan S. Park
Webmaster
:
Alan B. Chamberlin